Time,TemperatureF,DewpointF,PressureIn,WindDirection,WindDirectionDegrees,WindSpeedMPH,WindSpeedGustMPH,Humidity,HourlyPrecipIn,Conditions,Clouds,dailyrainin,SoftwareType,DateUTC
2013-01-16 00:09:00,28.2,22.0,30.08,WSW,242,7.0,18.0,76,0.00,,,0.00,weatherlink.com 1.10,2013-01-16 05:09:00,
2013-01-16 00:24:00,28.3,22.0,30.07,SSW,203,6.0,17.0,76,0.00,,,0.00,weatherlink.com 1.10,2013-01-16 05:24:00,
2013-01-16 00:39:00,28.2,22.0,30.06,SW,215,9.0,19.0,77,0.00,,,0.00,weatherlink.com 1.10,2013-01-16 05:39:00,
2013-01-16 00:54:00,28.0,22.0,30.05,SSW,204,9.0,18.0,78,0.00,,,0.00,weatherlink.com 1.10,2013-01-16 05:54:00,
2013-01-16 01:09:00,27.9,22.0,30.05,SW,216,14.0,19.0,78,0.00,,,0.00,weatherlink.com 1.10,2013-01-16 06:09:00,
2013-01-16 01:24:00,27.9,22.0,30.04,SSE,150,4.0,17.0,78,0.00,,,0.00,weatherlink.com 1.10,2013-01-16 06:24:00,
2013-01-16 01:39:00,27.9,22.0,30.03,South,190,4.0,18.0,79,0.00,,,0.00,weatherlink.com 1.10,2013-01-16 06:39:00,
2013-01-16 01:54:00,28.0,22.0,30.02,SSW,195,7.0,15.0,79,0.00,,,0.00,weatherlink.com 1.10,2013-01-16 06:54:00,
2013-01-16 02:09:00,28.1,22.0,30.02,WSW,239,14.0,17.0,79,0.00,,,0.00,weatherlink.com 1.10,2013-01-16 07:09:00,
2013-01-16 02:24:00,28.0,23.0,30.01,SSW,196,7.0,18.0,80,0.00,,,0.00,weatherlink.com 1.10,2013-01-16 07:24:00,
2013-01-16 02:39:00,28.0,23.0,30.01,SW,217,8.0,16.0,80,0.00,,,0.00,weatherlink.com 1.10,2013-01-16 07:39:00,
2013-01-16 02:54:00,28.0,23.0,30.00,SW,236,9.0,15.0,81,0.00,,,0.00,weatherlink.com 1.10,2013-01-16 07:54:00,
2013-01-16 03:09:00,28.1,23.0,29.99,SSW,200,7.0,15.0,81,0.00,,,0.00,weatherlink.com 1.10,2013-01-16 08:09:00,
2013-01-16 03:24:00,28.5,23.0,29.98,SSW,213,7.0,19.0,80,0.00,,,0.00,weatherlink.com 1.10,2013-01-16 08:24:00,
2013-01-16 03:39:00,28.8,23.0,29.98,SSW,194,10.0,19.0,79,0.00,,,0.00,weatherlink.com 1.10,2013-01-16 08:39:00,
2013-01-16 03:54:00,29.0,23.0,29.97,SW,217,4.0,17.0,79,0.00,,,0.00,weatherlink.com 1.10,2013-01-16 08:54:00,
2013-01-16 04:09:00,28.7,23.0,29.95,SSW,195,4.0,18.0,80,0.00,,,0.00,weatherlink.com 1.10,2013-01-16 09:09:00,
2013-01-16 04:24:00,28.1,23.0,29.94,SW,220,8.0,20.0,82,0.00,,,0.00,weatherlink.com 1.10,2013-01-16 09:24:00,
2013-01-16 04:39:00,27.7,23.0,29.93,SSW,199,7.0,17.0,82,0.00,,,0.00,weatherlink.com 1.10,2013-01-16 09:39:00,
2013-01-16 04:54:00,27.5,23.0,29.92,SSW,206,7.0,21.0,82,0.00,,,0.00,weatherlink.com 1.10,2013-01-16 09:54:00,
2013-01-16 05:09:00,27.2,23.0,29.91,SSW,213,10.0,16.0,83,0.00,,,0.00,weatherlink.com 1.10,2013-01-16 10:09:00,
2013-01-16 05:25:00,27.2,23.0,29.90,SSW,196,9.0,19.0,83,0.00,,,0.00,weatherlink.com 1.10,2013-01-16 10:25:00,
2013-01-16 05:40:00,27.6,23.0,29.89,South,177,15.0,22.0,81,0.00,,,0.00,weatherlink.com 1.10,2013-01-16 10:40:00,
2013-01-16 05:55:00,27.6,23.0,29.88,SSW,206,7.0,20.0,81,0.00,,,0.00,weatherlink.com 1.10,2013-01-16 10:55:00,
2013-01-16 06:10:00,27.6,22.0,29.87,SW,215,10.0,24.0,79,0.00,,,0.00,weatherlink.com 1.10,2013-01-16 11:10:00,
2013-01-16 06:25:00,27.6,22.0,29.86,SSW,204,6.0,17.0,78,0.00,,,0.00,weatherlink.com 1.10,2013-01-16 11:25:00,
2013-01-16 06:40:00,27.7,22.0,29.85,SSW,213,11.0,19.0,78,0.00,,,0.00,weatherlink.com 1.10,2013-01-16 11:40:00,
2013-01-16 06:55:00,27.9,22.0,29.86,SSW,208,10.0,21.0,77,0.00,,,0.00,weatherlink.com 1.10,2013-01-16 11:55:00,
2013-01-16 07:10:00,27.9,22.0,29.84,SW,230,15.0,17.0,77,0.00,,,0.00,weatherlink.com 1.10,2013-01-16 12:10:00,
2013-01-16 07:25:00,27.9,22.0,29.84,WSW,238,8.0,19.0,77,0.00,,,0.00,weatherlink.com 1.10,2013-01-16 12:25:00,
2013-01-16 07:40:00,27.9,22.0,29.83,SW,224,9.0,17.0,77,0.00,,,0.00,weatherlink.com 1.10,2013-01-16 12:40:00,
2013-01-16 07:55:00,27.8,21.0,29.82,SSW,211,8.0,23.0,77,0.00,,,0.00,weatherlink.com 1.10,2013-01-16 12:55:00,
2013-01-16 08:10:00,27.8,21.0,29.81,SSW,194,17.0,21.0,77,0.00,,,0.00,weatherlink.com 1.10,2013-01-16 13:10:00,
2013-01-16 08:25:00,27.9,22.0,29.80,SSW,211,6.0,24.0,77,0.00,,,0.00,weatherlink.com 1.10,2013-01-16 13:25:00,
2013-01-16 08:40:00,27.9,22.0,29.79,SW,215,12.0,24.0,77,0.00,,,0.00,weatherlink.com 1.10,2013-01-16 13:40:00,
2013-01-16 08:55:00,27.7,22.0,29.79,WSW,242,13.0,18.0,78,0.00,,,0.00,weatherlink.com 1.10,2013-01-16 13:55:00,
2013-01-16 09:10:00,27.6,22.0,29.78,SSW,208,7.0,23.0,78,0.00,,,0.00,weatherlink.com 1.10,2013-01-16 14:10:00,
2013-01-16 09:25:00,27.6,21.0,29.77,SW,232,10.0,21.0,77,0.00,,,0.00,weatherlink.com 1.10,2013-01-16 14:25:00,
2013-01-16 09:40:00,27.7,21.0,29.76,SW,215,11.0,23.0,77,0.00,,,0.00,weatherlink.com 1.10,2013-01-16 14:40:00,
2013-01-16 09:55:00,27.7,21.0,29.75,SSE,167,8.0,19.0,75,0.00,,,0.00,weatherlink.com 1.10,2013-01-16 14:55:00,
2013-01-16 10:10:00,27.8,21.0,29.75,South,171,6.0,18.0,75,0.00,,,0.00,weatherlink.com 1.10,2013-01-16 15:10:00,
2013-01-16 10:25:00,28.0,20.0,29.73,SW,215,11.0,23.0,73,0.00,,,0.00,weatherlink.com 1.10,2013-01-16 15:25:00,
2013-01-16 10:40:00,28.4,21.0,29.73,South,184,6.0,20.0,73,0.00,,,0.00,weatherlink.com 1.10,2013-01-16 15:40:00,
2013-01-16 10:55:00,28.7,20.0,29.71,SW,223,12.0,21.0,71,0.00,,,0.00,weatherlink.com 1.10,2013-01-16 15:55:00,
2013-01-16 11:10:00,29.2,20.0,29.69,South,180,10.0,27.0,69,0.00,,,0.00,weatherlink.com 1.10,2013-01-16 16:10:00,
2013-01-16 11:25:00,29.7,20.0,29.69,South,190,13.0,25.0,68,0.00,,,0.00,weatherlink.com 1.10,2013-01-16 16:25:00,
2013-01-16 11:40:00,29.6,21.0,29.67,SSW,201,19.0,24.0,69,0.00,,,0.00,weatherlink.com 1.10,2013-01-16 16:40:00,
2013-01-16 11:55:00,29.6,21.0,29.66,WSW,250,15.0,18.0,69,0.00,,,0.00,weatherlink.com 1.10,2013-01-16 16:55:00,
2013-01-16 12:10:00,29.8,21.0,29.66,SW,214,14.0,30.0,69,0.00,,,0.00,weatherlink.com 1.10,2013-01-16 17:10:00,
2013-01-16 12:25:00,30.3,22.0,29.64,SW,217,11.0,25.0,70,0.00,,,0.00,weatherlink.com 1.10,2013-01-16 17:25:00,
2013-01-16 12:40:00,30.7,22.0,29.63,SSE,158,11.0,21.0,70,0.00,,,0.00,weatherlink.com 1.10,2013-01-16 17:40:00,
2013-01-16 12:56:00,30.8,22.0,29.62,SSW,196,20.0,26.0,70,0.00,,,0.00,weatherlink.com 1.10,2013-01-16 17:56:00,
2013-01-16 13:11:00,30.9,23.0,29.61,WSW,240,6.0,25.0,71,0.00,,,0.00,weatherlink.com 1.10,2013-01-16 18:11:00,
2013-01-16 13:26:00,31.3,23.0,29.61,SSW,209,6.0,22.0,72,0.00,,,0.00,weatherlink.com 1.10,2013-01-16 18:26:00,
2013-01-16 13:41:00,31.1,24.0,29.61,WSW,254,11.0,25.0,75,0.00,,,0.00,weatherlink.com 1.10,2013-01-16 18:41:00,
2013-01-16 13:56:00,30.7,25.0,29.60,SW,225,14.0,23.0,80,0.00,,,0.00,weatherlink.com 1.10,2013-01-16 18:56:00,
2013-01-16 14:11:00,29.9,27.0,29.59,WSW,238,9.0,25.0,87,0.00,,,0.00,weatherlink.com 1.10,2013-01-16 19:11:00,
2013-01-16 14:26:00,29.7,27.0,29.60,SW,214,8.0,23.0,89,0.00,,,0.00,weatherlink.com 1.10,2013-01-16 19:26:00,
2013-01-16 14:41:00,29.8,27.0,29.60,West,263,13.0,22.0,89,0.00,,,0.00,weatherlink.com 1.10,2013-01-16 19:41:00,
2013-01-16 14:56:00,29.7,25.0,29.61,WSW,250,11.0,29.0,83,0.00,,,0.00,weatherlink.com 1.10,2013-01-16 19:56:00,
2013-01-16 15:11:00,30.1,25.0,29.61,WSW,237,17.0,24.0,81,0.00,,,0.00,weatherlink.com 1.10,2013-01-16 20:11:00,
2013-01-16 15:26:00,30.0,25.0,29.61,West,267,15.0,27.0,82,0.00,,,0.00,weatherlink.com 1.10,2013-01-16 20:26:00,
2013-01-16 15:41:00,29.9,25.0,29.62,West,260,15.0,24.0,83,0.00,,,0.00,weatherlink.com 1.10,2013-01-16 20:41:00,
2013-01-16 15:56:00,29.8,26.0,29.63,West,259,8.0,26.0,84,0.00,,,0.00,weatherlink.com 1.10,2013-01-16 20:56:00,
2013-01-16 16:11:00,29.9,25.0,29.62,WSW,250,10.0,23.0,83,0.00,,,0.00,weatherlink.com 1.10,2013-01-16 21:11:00,
2013-01-16 16:26:00,30.0,26.0,29.63,WSW,251,7.0,22.0,85,0.00,,,0.00,weatherlink.com 1.10,2013-01-16 21:26:00,
2013-01-16 16:41:00,30.3,26.0,29.64,SW,225,8.0,22.0,84,0.00,,,0.00,weatherlink.com 1.10,2013-01-16 21:41:00,
2013-01-16 16:56:00,30.2,26.0,29.64,WSW,257,10.0,26.0,84,0.00,,,0.00,weatherlink.com 1.10,2013-01-16 21:56:00,
2013-01-16 17:11:00,30.1,26.0,29.65,WSW,257,8.0,22.0,84,0.00,,,0.00,weatherlink.com 1.10,2013-01-16 22:11:00,
2013-01-16 17:26:00,30.0,25.0,29.67,West,260,10.0,21.0,83,0.00,,,0.00,weatherlink.com 1.10,2013-01-16 22:26:00,
2013-01-16 17:41:00,30.0,25.0,29.67,West,278,12.0,22.0,82,0.00,,,0.00,weatherlink.com 1.10,2013-01-16 22:41:00,
2013-01-16 17:56:00,30.0,25.0,29.68,WSW,251,11.0,23.0,81,0.00,,,0.00,weatherlink.com 1.10,2013-01-16 22:56:00,
2013-01-16 18:11:00,30.0,25.0,29.70,West,259,15.0,21.0,82,0.00,,,0.00,weatherlink.com 1.10,2013-01-16 23:11:00,
2013-01-16 18:26:00,30.1,25.0,29.71,WSW,254,9.0,21.0,81,0.00,,,0.00,weatherlink.com 1.10,2013-01-16 23:26:00,
2013-01-16 18:41:00,30.0,25.0,29.73,WSW,244,13.0,19.0,81,0.00,,,0.00,weatherlink.com 1.10,2013-01-16 23:41:00,
2013-01-16 18:56:00,29.9,25.0,29.73,West,262,10.0,19.0,81,0.00,,,0.00,weatherlink.com 1.10,2013-01-16 23:56:00,
2013-01-16 19:11:00,29.8,24.0,29.74,West,265,13.0,23.0,80,0.00,,,0.00,weatherlink.com 1.10,2013-01-17 00:11:00,
2013-01-16 19:26:00,29.6,24.0,29.74,West,273,15.0,27.0,78,0.00,,,0.00,weatherlink.com 1.10,2013-01-17 00:26:00,
2013-01-16 19:41:00,29.3,23.0,29.75,WSW,258,17.0,26.0,77,0.00,,,0.00,weatherlink.com 1.10,2013-01-17 00:41:00,
2013-01-16 19:56:00,27.5,23.0,29.77,NW,314,26.0,33.0,84,0.00,,,0.00,weatherlink.com 1.10,2013-01-17 00:56:00,
2013-01-16 20:11:00,26.8,22.0,29.78,West,278,20.0,27.0,81,0.00,,,0.00,weatherlink.com 1.10,2013-01-17 01:11:00,
2013-01-16 20:27:00,26.6,19.0,29.79,NW,318,15.0,32.0,72,0.00,,,0.00,weatherlink.com 1.10,2013-01-17 01:27:00,
2013-01-16 20:42:00,26.5,19.0,29.79,WNW,299,15.0,33.0,72,0.00,,,0.00,weatherlink.com 1.10,2013-01-17 01:42:00,
2013-01-16 20:57:00,25.8,18.0,29.80,WNW,298,22.0,35.0,73,0.00,,,0.00,weatherlink.com 1.10,2013-01-17 01:57:00,
2013-01-16 21:12:00,25.0,17.0,29.82,WNW,298,23.0,35.0,72,0.00,,,0.00,weatherlink.com 1.10,2013-01-17 02:12:00,
2013-01-16 21:27:00,24.5,16.0,29.83,WNW,296,22.0,40.0,71,0.00,,,0.00,weatherlink.com 1.10,2013-01-17 02:27:00,
2013-01-16 21:42:00,23.9,16.0,29.84,NW,307,20.0,35.0,72,0.00,,,0.00,weatherlink.com 1.10,2013-01-17 02:42:00,
2013-01-16 21:57:00,23.4,17.0,29.85,NW,324,25.0,32.0,76,0.00,,,0.00,weatherlink.com 1.10,2013-01-17 02:57:00,
2013-01-16 22:12:00,22.9,15.0,29.86,WNW,293,30.0,34.0,73,0.00,,,0.00,weatherlink.com 1.10,2013-01-17 03:12:00,
2013-01-16 22:27:00,22.4,16.0,29.88,WNW,296,25.0,33.0,76,0.00,,,0.00,weatherlink.com 1.10,2013-01-17 03:27:00,
2013-01-16 22:42:00,22.1,15.0,29.89,WNW,294,25.0,32.0,74,0.00,,,0.00,weatherlink.com 1.10,2013-01-17 03:42:00,
2013-01-16 22:57:00,21.8,15.0,29.91,NW,309,28.0,32.0,75,0.00,,,0.00,weatherlink.com 1.10,2013-01-17 03:57:00,
2013-01-16 23:12:00,21.2,14.0,29.93,NW,313,25.0,30.0,73,0.00,,,0.00,weatherlink.com 1.10,2013-01-17 04:12:00,
2013-01-16 23:27:00,19.9,14.0,29.94,NNW,327,27.0,28.0,78,0.00,,,0.00,weatherlink.com 1.10,2013-01-17 04:27:00,
2013-01-16 23:42:00,19.3,13.0,29.96,NW,311,21.0,30.0,76,0.00,,,0.00,weatherlink.com 1.10,2013-01-17 04:42:00,
2013-01-16 23:57:00,18.1,11.0,29.97,NNW,341,25.0,30.0,74,0.00,,,0.00,weatherlink.com 1.10,2013-01-17 04:57:00,